Weather History for KPTT - February, 2013

Change the Weather History Date:

Wednesday, February 27, 2013

  Actual Average (KP28) Record (KP28)
Temperature  
Mean Temperature 27 °F 42 °F  
Max Temperature 37 °F 54 °F 83 °F (1932)
Min Temperature 17 °F 29 °F 3 °F (1912)
Degree Days  
Heating Degree Days 38 23  
Month to date heating degree days 729  
Since 1 July heating degree days 3506  
Cooling Degree Days 0 0  
Month to date cooling degree days 0  
Year to date cooling degree days 0  
Moisture  
Dew Point 23 °F    
Average Humidity 82    
Maximum Humidity 100    
Minimum Humidity 69    
Precipitation  
Precipitation 0.00 in 0.05 in 2.90 in (1948)
Month to date precipitation 0.99  
Year to date precipitation 1.70  
Snow  
Snow 0.00 in 0.10 in - ()
Month to date snowfall 2.2  
Since 1 July snowfall 8.4  
Snow Depth -    
Sea Level Pressure  
Sea Level Pressure 30.09 in    
Wind  
Wind Speed 14 mph (NW)    
Max Wind Speed 28 mph    
Max Gust Speed 34 mph    
Visibility 9 miles    
Events      
T = Trace of Precipitation, MM = Missing Value Source: NWS Daily Summary

Daily Weather History Graph

Daily Weather History Graph

Search for Another Location

Airport or City:

Trip Planner

Search our weather history database for the weather conditions in past years. The results will help you decide how hot, cold, wet, or windy it might be!

Date:

Astronomy

Feb. 27, 2013 Rise Set
Actual Time 7:08 AM CST 6:26 PM CST
Civil Twilight 6:42 AM CST 6:53 PM CST
Nautical Twilight 6:12 AM CST 7:23 PM CST
Astronomical Twilight 5:41 AM CST 7:54 PM CST
Moon 8:46 PM CST (2/27) 7:48 AM CST (2/27)
Length of Visible Light 12h 10m
Length of Day
11h 18m
Waning Gibbous, 96% of the Moon is Illuminated
Feb 27
Waning Gibbous
Mar 4
Last Quarter
Mar 11
New
Mar 19
First Quarter
Mar 27
Full

Hourly Weather History & Observations

Time (CST) Temp. Windchill Dew Point Humidity Pressure Visibility Wind Dir Wind Speed Gust Speed Precip Events Conditions
12:15 AM 17.6 °F 7.3 °F 17.6 °F 100% 29.94 in 7.0 mi WNW 8.1 mph - N/A   Clear
12:35 AM 19.4 °F 7.2 °F 17.6 °F 93% 29.94 in 7.0 mi NW 11.5 mph - N/A   Clear
12:55 AM 19.4 °F 7.9 °F 17.6 °F 93% 29.95 in 7.0 mi WNW 10.4 mph - N/A   Clear
1:15 AM 17.6 °F 6.4 °F 17.6 °F 100% 29.97 in 7.0 mi West 9.2 mph - N/A   Scattered Clouds
1:35 AM 17.6 °F 5.0 °F 17.6 °F 100% 29.98 in 10.0 mi WNW 11.5 mph - N/A   Scattered Clouds
1:55 AM 19.4 °F 7.2 °F 17.6 °F 93% 29.98 in 10.0 mi NW 11.5 mph - N/A   Mostly Cloudy
2:15 AM 21.2 °F 9.5 °F 19.4 °F 93% 29.98 in 10.0 mi NW 11.5 mph - N/A   Overcast
2:35 AM 19.4 °F 7.2 °F 17.6 °F 93% 29.98 in 10.0 mi NW 11.5 mph - N/A   Overcast
2:55 AM 19.4 °F 8.6 °F 17.6 °F 93% 29.98 in 10.0 mi NW 9.2 mph - N/A   Mostly Cloudy
3:15 AM 19.4 °F 7.9 °F 17.6 °F 93% 29.98 in 10.0 mi NW 10.4 mph - N/A   Clear
3:35 AM 21.2 °F 10.1 °F 19.4 °F 93% 29.97 in 10.0 mi WNW 10.4 mph - N/A   Mostly Cloudy
3:55 AM 21.2 °F 8.3 °F 19.4 °F 93% 29.98 in 10.0 mi NW 13.8 mph - N/A   Overcast
4:15 AM 21.2 °F 8.3 °F 19.4 °F 93% 29.98 in 10.0 mi WNW 13.8 mph - N/A   Overcast
4:35 AM 21.2 °F 8.3 °F 19.4 °F 93% 29.99 in 10.0 mi NW 13.8 mph - N/A   Scattered Clouds
4:55 AM 19.4 °F 7.9 °F 17.6 °F 93% 29.98 in 10.0 mi WNW 10.4 mph - N/A   Clear
5:15 AM 19.4 °F 7.2 °F 15.8 °F 86% 30.00 in 10.0 mi NW 11.5 mph - N/A   Clear
5:35 AM 19.4 °F 7.2 °F 15.8 °F 86% 30.00 in 10.0 mi NW 11.5 mph - N/A   Clear
5:55 AM 19.4 °F 7.2 °F 15.8 °F 86% 30.01 in 10.0 mi WNW 11.5 mph - N/A   Scattered Clouds
6:15 AM 19.4 °F 6.0 °F 15.8 °F 86% 30.01 in 10.0 mi WNW 13.8 mph - N/A   Scattered Clouds
6:35 AM 19.4 °F 5.0 °F 15.8 °F 86% 30.01 in 10.0 mi WNW 16.1 mph - N/A   Scattered Clouds
6:55 AM 21.2 °F 7.8 °F 17.6 °F 86% 30.02 in 10.0 mi WNW 15.0 mph - N/A   Mostly Cloudy
7:15 AM 21.2 °F 8.3 °F 17.6 °F 86% 30.02 in 10.0 mi NW 13.8 mph - N/A   Mostly Cloudy
7:35 AM 21.2 °F 6.8 °F 17.6 °F 86% 30.03 in 10.0 mi NW 17.3 mph - N/A   Overcast
7:55 AM 23.0 °F 10.1 °F 17.6 °F 80% 30.04 in 10.0 mi NW 15.0 mph - N/A   Scattered Clouds
8:15 AM 23.0 °F 9.6 °F 17.6 °F 80% 30.05 in 10.0 mi NW 16.1 mph - N/A   Clear
8:35 AM 26.6 °F 13.8 °F 19.4 °F 74% 30.06 in 10.0 mi NW 17.3 mph - N/A   Clear
8:55 AM 26.6 °F 13.8 °F 19.4 °F 74% 30.07 in 10.0 mi NNW 17.3 mph - N/A   Clear
9:15 AM 28.4 °F 14.7 °F 21.2 °F 74% 30.07 in 10.0 mi NNW 21.9 mph 26.5 mph N/A   Clear
9:35 AM 30.2 °F 17.4 °F 21.2 °F 69% 30.07 in 7.0 mi NNW 20.7 mph - N/A   Clear
9:55 AM 32.0 °F 19.2 °F 23.0 °F 69% 30.08 in 10.0 mi NNW 23.0 mph 27.6 mph N/A   Clear
10:15 AM 32.0 °F 18.6 °F 23.0 °F 69% 30.09 in 7.0 mi NNW 25.3 mph 28.8 mph N/A   Clear
10:35 AM 32.0 °F 18.9 °F 23.0 °F 69% 30.10 in 7.0 mi North 24.2 mph 28.8 mph N/A   Clear
10:55 AM 33.8 °F 21.3 °F 24.8 °F 70% 30.10 in 7.0 mi North 24.2 mph 27.6 mph N/A   Clear
11:15 AM 33.8 °F 20.5 °F 26.6 °F 75% 30.11 in 5.0 mi North 27.6 mph 33.4 mph N/A   Haze
11:35 AM 33.8 °F 21.0 °F 26.6 °F 75% 30.12 in 7.0 mi North 25.3 mph 29.9 mph N/A   Clear
11:55 AM 33.8 °F 21.0 °F 26.6 °F 75% 30.12 in 7.0 mi North 25.3 mph 32.2 mph N/A   Clear
12:15 PM 33.8 °F 21.3 °F 26.6 °F 75% 30.13 in 5.0 mi North 24.2 mph 29.9 mph N/A   Haze
12:35 PM 35.6 °F 23.4 °F 28.4 °F 75% 30.12 in 7.0 mi North 25.3 mph 32.2 mph N/A   Clear
12:55 PM 35.6 °F 24.0 °F 28.4 °F 75% 30.12 in 7.0 mi NNW 23.0 mph 32.2 mph N/A   Clear
1:15 PM 37.4 °F 26.6 °F 28.4 °F 70% 30.13 in 10.0 mi NNW 21.9 mph 29.9 mph N/A   Clear
1:35 PM 35.6 °F 23.0 °F 26.6 °F 70% 30.13 in 7.0 mi North 27.6 mph 34.5 mph N/A   Clear
1:55 PM 35.6 °F 24.8 °F 28.4 °F 75% 30.14 in 10.0 mi North 19.6 mph - N/A   Clear
2:15 PM 35.6 °F 23.7 °F 26.6 °F 70% 30.14 in 10.0 mi North 24.2 mph 27.6 mph N/A   Clear
2:35 PM 35.6 °F 24.0 °F 26.6 °F 70% 30.15 in 10.0 mi North 23.0 mph 28.8 mph N/A   Clear
2:55 PM 35.6 °F 24.2 °F 26.6 °F 70% 30.15 in 10.0 mi North 21.9 mph - N/A   Clear
3:15 PM 37.4 °F 26.6 °F 28.4 °F 70% 30.15 in 10.0 mi North 21.9 mph - N/A   Clear
3:35 PM 37.4 °F 27.5 °F 28.4 °F 70% 30.15 in 10.0 mi North 18.4 mph 24.2 mph N/A   Clear
3:55 PM 35.6 °F 24.0 °F 28.4 °F 75% 30.16 in 10.0 mi North 23.0 mph - N/A   Scattered Clouds
4:15 PM 35.6 °F 25.5 °F 28.4 °F 75% 30.16 in 10.0 mi NNW 17.3 mph - N/A   Clear
4:35 PM 35.6 °F 25.2 °F 28.4 °F 75% 30.16 in 10.0 mi NNW 18.4 mph - N/A   Clear
4:55 PM 35.6 °F 25.2 °F 30.2 °F 81% 30.17 in 10.0 mi NNW 18.4 mph - N/A   Clear
5:15 PM 33.8 °F 24.8 °F 30.2 °F 87% 30.17 in 10.0 mi NW 12.7 mph - N/A   Clear
5:35 PM 33.8 °F 23.2 °F 30.2 °F 87% 30.17 in 10.0 mi NNW 17.3 mph - N/A   Clear
5:55 PM 33.8 °F 24.3 °F 28.4 °F 81% 30.18 in 10.0 mi NNW 13.8 mph - N/A   Scattered Clouds
6:15 PM 32.0 °F 23.0 °F 28.4 °F 87% 30.18 in 10.0 mi NNW 11.5 mph - N/A   Scattered Clouds
6:35 PM 32.0 °F 20.1 °F 28.4 °F 87% 30.18 in 10.0 mi NNW 19.6 mph - N/A   Scattered Clouds
6:55 PM 32.0 °F 20.8 °F 26.6 °F 80% 30.18 in 10.0 mi NNW 17.3 mph - N/A   Clear
7:15 PM 32.0 °F 21.6 °F 26.6 °F 80% 30.18 in 10.0 mi NNW 15.0 mph - N/A   Clear
7:35 PM 32.0 °F 22.1 °F 26.6 °F 80% 30.19 in 10.0 mi NNW 13.8 mph - N/A   Clear
7:55 PM 32.0 °F 22.5 °F 26.6 °F 80% 30.19 in 10.0 mi NNW 12.7 mph - N/A   Clear
8:15 PM 32.0 °F 23.6 °F 26.6 °F 80% 30.19 in 10.0 mi NNW 10.4 mph - N/A   Clear
8:35 PM 30.2 °F 21.3 °F 26.6 °F 86% 30.19 in 10.0 mi NW 10.4 mph - N/A   Clear
8:55 PM 30.2 °F 21.3 °F 26.6 °F 86% 30.19 in 10.0 mi NW 10.4 mph - N/A   Clear
9:15 PM 30.2 °F 22.6 °F 26.6 °F 86% 30.19 in 10.0 mi NNW 8.1 mph - N/A   Clear
9:35 PM 28.4 °F 19.7 °F 24.8 °F 86% 30.19 in 10.0 mi NW 9.2 mph - N/A   Clear
10:15 PM 28.4 °F 19.7 °F 23.0 °F 80% 30.20 in 10.0 mi NW 9.2 mph - N/A   Clear
10:35 PM 28.4 °F 19.1 °F 23.0 °F 80% 30.20 in 10.0 mi NW 10.4 mph - N/A   Clear
10:55 PM 28.4 °F 19.1 °F 23.0 °F 80% 30.19 in 10.0 mi NW 10.4 mph - N/A   Clear
11:15 PM 26.6 °F 17.5 °F 23.0 °F 86% 30.19 in 10.0 mi NW 9.2 mph - N/A   Clear
11:35 PM 26.6 °F 17.5 °F 23.0 °F 86% 30.19 in 10.0 mi WNW 9.2 mph - N/A   Clear
11:55 PM 24.8 °F 14.6 °F 23.0 °F 93% 30.19 in 10.0 mi WNW 10.4 mph - N/A   Clear